Time,TemperatureF,DewpointF,PressureIn,WindDirection,WindDirectionDegrees,WindSpeedMPH,WindSpeedGustMPH,Humidity,HourlyPrecipIn,Conditions,Clouds,dailyrainin,SoftwareType,DateUTC
2013-01-27 00:00:00,63.3,60.9,30.12,SE,144,1.0,3.0,92,0.00,,,0.00,Wunderground v.1.15,2013-01-27 06:00:00,
2013-01-27 00:10:00,63.0,60.6,30.11,East,84,1.0,1.0,92,0.00,,,0.00,Wunderground v.1.15,2013-01-27 06:10:00,
2013-01-27 00:19:00,62.6,60.2,30.11,SE,135,1.0,1.0,92,0.00,,,0.00,Wunderground v.1.15,2013-01-27 06:19:00,
2013-01-27 00:29:00,62.1,60.1,30.11,SE,132,1.0,1.0,93,0.00,,,0.00,Wunderground v.1.15,2013-01-27 06:29:00,
2013-01-27 00:34:00,61.9,59.9,30.11,West,273,1.0,1.0,93,0.00,,,0.00,Wunderground v.1.15,2013-01-27 06:34:00,
2013-01-27 00:40:00,61.7,60.0,30.11,SSW,205,0.0,1.0,94,0.00,,,0.00,Wunderground v.1.15,2013-01-27 06:40:00,
2013-01-27 00:49:00,61.5,59.8,30.11,SE,145,0.0,0.0,94,0.00,,,0.00,Wunderground v.1.15,2013-01-27 06:49:00,
2013-01-27 00:59:00,61.5,60.1,30.11,ESE,118,0.0,0.0,95,0.00,,,0.00,Wunderground v.1.15,2013-01-27 06:59:00,
2013-01-27 01:05:00,61.5,60.1,30.11,SSE,167,0.0,0.0,95,0.00,,,0.00,Wunderground v.1.15,2013-01-27 07:05:00,
2013-01-27 01:14:00,61.6,60.2,30.11,ESE,117,0.0,1.0,95,0.00,,,0.00,Wunderground v.1.15,2013-01-27 07:14:00,
2013-01-27 01:25:00,61.6,60.2,30.11,SW,226,0.0,0.0,95,0.00,,,0.00,Wunderground v.1.15,2013-01-27 07:25:00,
2013-01-27 01:34:00,61.6,60.2,30.11,NW,309,0.0,0.0,95,0.00,,,0.00,Wunderground v.1.15,2013-01-27 07:34:00,
2013-01-27 01:40:00,61.7,60.3,30.11,NW,318,0.0,0.0,95,0.00,,,0.00,Wunderground v.1.15,2013-01-27 07:40:00,
2013-01-27 01:49:00,61.6,60.2,30.11,NNW,333,0.0,0.0,95,0.00,,,0.00,Wunderground v.1.15,2013-01-27 07:49:00,
2013-01-27 01:59:00,61.6,60.2,30.11,WNW,293,0.0,1.0,95,0.00,,,0.00,Wunderground v.1.15,2013-01-27 07:59:00,
2013-01-27 02:05:00,61.6,60.2,30.11,SSW,211,0.0,1.0,95,0.00,,,0.00,Wunderground v.1.15,2013-01-27 08:05:00,
2013-01-27 02:14:00,61.5,60.1,30.11,SE,127,0.0,0.0,95,0.00,,,0.00,Wunderground v.1.15,2013-01-27 08:14:00,
2013-01-27 02:25:00,61.5,60.1,30.10,ESE,119,0.0,0.0,95,0.00,,,0.00,Wunderground v.1.15,2013-01-27 08:25:00,
2013-01-27 02:34:00,61.4,60.0,30.11,East,81,0.0,0.0,95,0.00,,,0.00,Wunderground v.1.15,2013-01-27 08:34:00,
2013-01-27 02:40:00,61.4,60.0,30.10,SSE,152,1.0,1.0,95,0.00,,,0.00,Wunderground v.1.15,2013-01-27 08:40:00,
2013-01-27 02:49:00,61.4,60.0,30.11,ESE,107,0.0,0.0,95,0.00,,,0.00,Wunderground v.1.15,2013-01-27 08:49:00,
2013-01-27 02:59:00,61.3,59.9,30.11,SE,141,0.0,1.0,95,0.00,,,0.00,Wunderground v.1.15,2013-01-27 08:59:00,
2013-01-27 03:10:00,61.2,59.8,30.10,SE,134,0.0,0.0,95,0.00,,,0.00,Wunderground v.1.15,2013-01-27 09:10:00,
2013-01-27 03:19:00,61.0,59.9,30.10,SE,140,0.0,0.0,96,0.00,,,0.00,Wunderground v.1.15,2013-01-27 09:19:00,
2013-01-27 03:30:00,60.8,59.7,30.10,SE,135,0.0,0.0,96,0.00,,,0.00,Wunderground v.1.15,2013-01-27 09:30:00,
2013-01-27 03:39:00,60.7,59.6,30.10,ESE,113,0.0,0.0,96,0.00,,,0.00,Wunderground v.1.15,2013-01-27 09:39:00,
2013-01-27 03:49:00,60.5,59.4,30.10,SSE,165,0.0,1.0,96,0.00,,,0.00,Wunderground v.1.15,2013-01-27 09:49:00,
2013-01-27 04:00:00,60.4,59.3,30.09,SE,129,0.0,2.0,96,0.00,,,0.00,Wunderground v.1.15,2013-01-27 10:00:00,
2013-01-27 04:10:00,60.2,59.1,30.09,SE,134,0.0,0.0,96,0.00,,,0.00,Wunderground v.1.15,2013-01-27 10:10:00,
2013-01-27 04:20:00,60.1,59.2,30.09,WSW,251,0.0,0.0,97,0.00,,,0.00,Wunderground v.1.15,2013-01-27 10:20:00,
2013-01-27 04:30:00,59.9,59.0,30.08,East,94,0.0,0.0,97,0.00,,,0.00,Wunderground v.1.15,2013-01-27 10:30:00,
2013-01-27 04:40:00,59.8,58.9,30.08,North,351,0.0,0.0,97,0.00,,,0.00,Wunderground v.1.15,2013-01-27 10:40:00,
2013-01-27 04:50:00,59.8,58.9,30.08,North,356,0.0,0.0,97,0.00,,,0.00,Wunderground v.1.15,2013-01-27 10:50:00,
2013-01-27 05:00:00,59.8,58.9,30.08,North,359,0.0,0.0,97,0.00,,,0.00,Wunderground v.1.15,2013-01-27 11:00:00,
2013-01-27 05:05:00,59.9,59.0,30.08,ESE,109,0.0,0.0,97,0.00,,,0.00,Wunderground v.1.15,2013-01-27 11:05:00,
2013-01-27 05:15:00,60.3,59.7,30.08,SE,132,0.0,0.0,98,0.00,,,0.00,Wunderground v.1.15,2013-01-27 11:15:00,
2013-01-27 05:25:00,60.4,59.8,30.08,ESE,117,0.0,0.0,98,0.00,,,0.00,Wunderground v.1.15,2013-01-27 11:25:00,
2013-01-27 05:30:00,60.4,59.8,30.08,SSE,155,0.0,0.0,98,0.00,,,0.00,Wunderground v.1.15,2013-01-27 11:30:00,
2013-01-27 05:40:00,60.5,59.9,30.08,ESE,120,0.0,0.0,98,0.00,,,0.00,Wunderground v.1.15,2013-01-27 11:40:00,
2013-01-27 05:45:00,60.5,59.9,30.08,ENE,75,0.0,0.0,98,0.00,,,0.00,Wunderground v.1.15,2013-01-27 11:45:00,
2013-01-27 05:55:00,60.6,60.0,30.08,East,86,0.0,0.0,98,0.00,,,0.00,Wunderground v.1.15,2013-01-27 11:55:00,
2013-01-27 06:00:00,60.7,60.1,30.08,West,276,1.0,4.0,98,0.00,,,0.00,Wunderground v.1.15,2013-01-27 12:00:00,
2013-01-27 06:10:00,60.6,60.0,30.08,SE,139,1.0,1.0,98,0.00,,,0.00,Wunderground v.1.15,2013-01-27 12:10:00,
2013-01-27 06:20:00,60.8,60.2,30.08,West,267,1.0,1.0,98,0.00,,,0.00,Wunderground v.1.15,2013-01-27 12:20:00,
2013-01-27 06:30:00,60.8,60.2,30.08,SE,125,0.0,0.0,98,0.00,,,0.00,Wunderground v.1.15,2013-01-27 12:30:00,
2013-01-27 06:40:00,60.8,60.2,30.08,SE,138,0.0,1.0,98,0.00,,,0.00,Wunderground v.1.15,2013-01-27 12:40:00,
2013-01-27 06:50:00,60.8,60.2,30.09,WNW,291,1.0,1.0,98,0.00,,,0.00,Wunderground v.1.15,2013-01-27 12:50:00,
2013-01-27 07:00:00,60.9,60.3,30.09,West,271,0.0,0.0,98,0.00,,,0.00,Wunderground v.1.15,2013-01-27 13:00:00,
2013-01-27 07:10:00,61.0,60.4,30.09,ESE,105,0.0,0.0,98,0.00,,,0.00,Wunderground v.1.15,2013-01-27 13:10:00,
2013-01-27 07:15:00,61.0,60.4,30.09,ESE,122,0.0,1.0,98,0.00,,,0.00,Wunderground v.1.15,2013-01-27 13:15:00,
2013-01-27 07:25:00,61.1,60.5,30.09,SSE,148,1.0,1.0,98,0.00,,,0.00,Wunderground v.1.15,2013-01-27 13:25:00,
2013-01-27 07:35:00,61.3,60.7,30.08,SE,131,0.0,1.0,98,0.00,,,0.00,Wunderground v.1.15,2013-01-27 13:35:00,
2013-01-27 07:40:00,61.4,60.8,30.09,SE,131,0.0,0.0,98,0.00,,,0.00,Wunderground v.1.15,2013-01-27 13:40:00,
2013-01-27 07:45:00,61.5,60.9,30.08,ESE,117,0.0,0.0,98,0.00,,,0.00,Wunderground v.1.15,2013-01-27 13:45:00,
2013-01-27 07:55:00,61.8,61.2,30.09,ESE,105,0.0,0.0,98,0.00,,,0.00,Wunderground v.1.15,2013-01-27 13:55:00,
2013-01-27 08:00:00,61.9,61.3,30.09,ESE,117,0.0,0.0,98,0.00,,,0.00,Wunderground v.1.15,2013-01-27 14:00:00,
2013-01-27 08:10:00,62.1,61.5,30.09,ESE,120,0.0,1.0,98,0.00,,,0.00,Wunderground v.1.15,2013-01-27 14:10:00,
2013-01-27 08:20:00,62.4,61.8,30.09,ESE,122,0.0,0.0,98,0.00,,,0.00,Wunderground v.1.15,2013-01-27 14:20:00,
2013-01-27 08:30:00,62.5,61.9,30.09,NW,325,0.0,0.0,98,0.00,,,0.00,Wunderground v.1.15,2013-01-27 14:30:00,
2013-01-27 08:35:00,62.6,62.0,30.09,SE,140,1.0,1.0,98,0.00,,,0.00,Wunderground v.1.15,2013-01-27 14:35:00,
2013-01-27 08:45:00,62.8,62.2,30.09,ESE,115,0.0,1.0,98,0.00,,,0.00,Wunderground v.1.15,2013-01-27 14:45:00,
2013-01-27 08:55:00,63.1,62.5,30.09,ESE,117,0.0,1.0,98,0.00,,,0.00,Wunderground v.1.15,2013-01-27 14:55:00,
2013-01-27 09:00:00,63.1,62.5,30.09,ESE,118,1.0,1.0,98,0.00,,,0.00,Wunderground v.1.15,2013-01-27 15:00:00,
2013-01-27 09:10:00,63.3,62.7,30.10,ESE,120,0.0,0.0,98,0.00,,,0.00,Wunderground v.1.15,2013-01-27 15:10:00,
2013-01-27 09:20:00,63.5,62.9,30.10,South,176,0.0,0.0,98,0.00,,,0.00,Wunderground v.1.15,2013-01-27 15:20:00,
2013-01-27 09:45:00,64.1,63.5,30.11,ESE,107,0.0,2.0,98,0.00,,,0.00,Wunderground v.1.15,2013-01-27 15:45:00,
2013-01-27 09:50:00,64.3,63.7,30.11,SE,145,1.0,1.0,98,0.00,,,0.00,Wunderground v.1.15,2013-01-27 15:50:00,
2013-01-27 10:00:00,64.6,64.0,30.10,ESE,115,0.0,0.0,98,0.00,,,0.00,Wunderground v.1.15,2013-01-27 16:00:00,
2013-01-27 10:10:00,64.9,64.3,30.11,East,81,1.0,1.0,98,0.00,,,0.00,Wunderground v.1.15,2013-01-27 16:10:00,
2013-01-27 10:20:00,65.4,64.8,30.11,East,82,0.0,0.0,98,0.00,,,0.00,Wunderground v.1.15,2013-01-27 16:20:00,
2013-01-27 10:30:00,65.8,64.9,30.10,ESE,115,1.0,1.0,97,0.00,,,0.00,Wunderground v.1.15,2013-01-27 16:30:00,
2013-01-27 10:40:00,66.2,65.3,30.10,East,96,1.0,2.0,97,0.00,,,0.00,Wunderground v.1.15,2013-01-27 16:40:00,
2013-01-27 10:50:00,67.2,66.0,30.09,SSW,204,1.0,1.0,96,0.00,,,0.00,Wunderground v.1.15,2013-01-27 16:50:00,
2013-01-27 11:10:00,68.8,66.1,30.09,SSE,150,1.0,1.0,91,0.00,,,0.00,Wunderground v.1.15,2013-01-27 17:10:00,
2013-01-27 11:20:00,69.2,66.1,30.09,South,178,1.0,1.0,90,0.00,,,0.00,Wunderground v.1.15,2013-01-27 17:20:00,
2013-01-27 11:30:00,69.7,66.3,30.09,WSW,247,1.0,2.0,89,0.00,,,0.00,Wunderground v.1.15,2013-01-27 17:30:00,
2013-01-27 11:35:00,70.1,66.0,30.09,SE,132,1.0,2.0,87,0.00,,,0.00,Wunderground v.1.15,2013-01-27 17:35:00,
2013-01-27 11:45:00,70.7,66.3,30.08,WSW,254,1.0,2.0,86,0.00,,,0.00,Wunderground v.1.15,2013-01-27 17:45:00,
2013-01-27 11:50:00,71.1,66.7,30.08,SW,219,1.0,3.0,86,0.00,,,0.00,Wunderground v.1.15,2013-01-27 17:50:00,
2013-01-27 12:00:00,71.8,66.7,30.07,SE,143,2.0,2.0,84,0.00,,,0.00,Wunderground v.1.15,2013-01-27 18:00:00,
2013-01-27 12:10:00,72.5,67.4,30.07,NNW,330,1.0,1.0,84,0.00,,,0.00,Wunderground v.1.15,2013-01-27 18:10:00,
2013-01-27 12:15:00,72.8,67.0,30.06,East,83,1.0,1.0,82,0.00,,,0.00,Wunderground v.1.15,2013-01-27 18:15:00,
2013-01-27 12:25:00,73.3,67.1,30.06,SW,224,1.0,1.0,81,0.00,,,0.00,Wunderground v.1.15,2013-01-27 18:25:00,
2013-01-27 12:35:00,73.5,67.3,30.05,ESE,106,1.0,1.0,81,0.00,,,0.00,Wunderground v.1.15,2013-01-27 18:35:00,
2013-01-27 12:40:00,73.7,67.1,30.04,SSE,149,1.0,1.0,80,0.00,,,0.00,Wunderground v.1.15,2013-01-27 18:40:00,
2013-01-27 12:50:00,74.3,67.0,30.04,East,91,1.0,1.0,78,0.00,,,0.00,Wunderground v.1.15,2013-01-27 18:50:00,
2013-01-27 13:00:00,75.7,67.6,30.03,East,99,2.0,2.0,76,0.00,,,0.00,Wunderground v.1.15,2013-01-27 19:00:00,
2013-01-27 13:05:00,76.0,67.1,30.02,ENE,70,2.0,2.0,74,0.00,,,0.00,Wunderground v.1.15,2013-01-27 19:05:00,
2013-01-27 13:15:00,76.0,66.7,30.01,SSE,152,2.0,2.0,73,0.00,,,0.00,Wunderground v.1.15,2013-01-27 19:15:00,
2013-01-27 13:25:00,75.9,66.6,30.01,East,98,2.0,3.0,73,0.00,,,0.00,Wunderground v.1.15,2013-01-27 19:25:00,
2013-01-27 13:35:00,77.0,67.3,30.00,ESE,105,2.0,2.0,72,0.00,,,0.00,Wunderground v.1.15,2013-01-27 19:35:00,
2013-01-27 13:45:00,77.7,67.5,30.00,NW,304,2.0,3.0,71,0.00,,,0.00,Wunderground v.1.15,2013-01-27 19:45:00,
2013-01-27 13:55:00,77.6,67.0,30.00,ESE,110,3.0,4.0,70,0.00,,,0.00,Wunderground v.1.15,2013-01-27 19:55:00,
2013-01-27 14:05:00,77.3,66.7,29.99,NE,46,3.0,3.0,70,0.00,,,0.00,Wunderground v.1.15,2013-01-27 20:05:00,
2013-01-27 14:15:00,77.5,66.9,29.99,West,277,2.0,3.0,70,0.00,,,0.00,Wunderground v.1.15,2013-01-27 20:15:00,
2013-01-27 14:25:00,78.0,66.6,29.99,SW,224,2.0,3.0,68,0.00,,,0.00,Wunderground v.1.15,2013-01-27 20:25:00,
2013-01-27 14:35:00,78.2,67.2,29.98,ENE,63,2.0,3.0,69,0.00,,,0.00,Wunderground v.1.15,2013-01-27 20:35:00,
2013-01-27 14:45:00,78.2,67.2,29.98,SE,136,1.0,4.0,69,0.00,,,0.00,Wunderground v.1.15,2013-01-27 20:45:00,
2013-01-27 14:55:00,77.7,67.1,29.98,South,169,2.0,2.0,70,0.00,,,0.00,Wunderground v.1.15,2013-01-27 20:55:00,
2013-01-27 15:05:00,77.7,67.1,29.98,South,170,1.0,2.0,70,0.00,,,0.00,Wunderground v.1.15,2013-01-27 21:05:00,
2013-01-27 15:10:00,77.7,66.7,29.98,SW,217,1.0,2.0,69,0.00,,,0.00,Wunderground v.1.15,2013-01-27 21:10:00,
2013-01-27 15:20:00,77.6,66.6,29.97,NE,56,2.0,2.0,69,0.00,,,0.00,Wunderground v.1.15,2013-01-27 21:20:00,
2013-01-27 15:30:00,78.2,67.2,29.97,East,85,1.0,3.0,69,0.00,,,0.00,Wunderground v.1.15,2013-01-27 21:30:00,
2013-01-27 15:40:00,78.2,67.6,29.97,East,97,2.0,5.0,70,0.00,,,0.00,Wunderground v.1.15,2013-01-27 21:40:00,
2013-01-27 15:50:00,77.7,67.1,29.97,East,96,2.0,2.0,70,0.00,,,0.00,Wunderground v.1.15,2013-01-27 21:50:00,
2013-01-27 15:55:00,78.0,67.8,29.97,ESE,110,2.0,2.0,71,0.00,,,0.00,Wunderground v.1.15,2013-01-27 21:55:00,
2013-01-27 16:05:00,77.9,66.9,29.97,SW,233,2.0,2.0,69,0.00,,,0.00,Wunderground v.1.15,2013-01-27 22:05:00,
2013-01-27 16:15:00,77.2,67.1,29.97,SE,130,1.0,2.0,71,0.00,,,0.00,Wunderground v.1.15,2013-01-27 22:15:00,
2013-01-27 16:20:00,77.0,67.3,29.97,ESE,110,2.0,2.0,72,0.00,,,0.00,Wunderground v.1.15,2013-01-27 22:20:00,
2013-01-27 16:30:00,76.9,67.2,29.97,SSE,158,1.0,1.0,72,0.00,,,0.00,Wunderground v.1.15,2013-01-27 22:30:00,
2013-01-27 16:35:00,76.8,67.1,29.97,SSE,165,2.0,2.0,72,0.00,,,0.00,Wunderground v.1.15,2013-01-27 22:35:00,
2013-01-27 16:45:00,77.0,67.3,29.97,East,98,2.0,3.0,72,0.00,,,0.00,Wunderground v.1.15,2013-01-27 22:45:00,
2013-01-27 16:55:00,76.2,67.3,29.97,SE,139,2.0,5.0,74,0.00,,,0.00,Wunderground v.1.15,2013-01-27 22:55:00,
2013-01-27 17:00:00,75.8,66.9,29.97,SE,125,2.0,2.0,74,0.00,,,0.00,Wunderground v.1.15,2013-01-27 23:00:00,
2013-01-27 17:10:00,75.9,67.4,29.97,East,82,2.0,2.0,75,0.00,,,0.00,Wunderground v.1.15,2013-01-27 23:10:00,
2013-01-27 17:20:00,76.0,67.5,29.97,SE,124,1.0,1.0,75,0.00,,,0.00,Wunderground v.1.15,2013-01-27 23:20:00,
2013-01-27 17:30:00,75.4,66.9,29.98,NE,55,2.0,2.0,75,0.00,,,0.00,Wunderground v.1.15,2013-01-27 23:30:00,
2013-01-27 17:35:00,75.1,67.0,29.98,ENE,77,2.0,2.0,76,0.00,,,0.00,Wunderground v.1.15,2013-01-27 23:35:00,
2013-01-27 17:45:00,74.4,66.7,29.97,SSE,162,1.0,2.0,77,0.00,,,0.00,Wunderground v.1.15,2013-01-27 23:45:00,
2013-01-27 17:55:00,73.7,66.4,29.98,SSE,148,1.0,2.0,78,0.00,,,0.00,Wunderground v.1.15,2013-01-27 23:55:00,
2013-01-27 18:00:00,73.4,66.5,29.98,SE,134,1.0,1.0,79,0.00,,,0.00,Wunderground v.1.15,2013-01-28 00:00:00,
2013-01-27 18:10:00,73.0,66.5,29.98,ESE,105,0.0,2.0,80,0.00,,,0.00,Wunderground v.1.15,2013-01-28 00:10:00,
2013-01-27 18:20:00,72.8,66.6,29.98,ESE,120,0.0,0.0,81,0.00,,,0.00,Wunderground v.1.15,2013-01-28 00:20:00,
2013-01-27 18:30:00,72.8,66.6,29.99,East,86,1.0,1.0,81,0.00,,,0.00,Wunderground v.1.15,2013-01-28 00:30:00,
2013-01-27 18:40:00,72.5,66.7,29.99,SE,129,1.0,1.0,82,0.00,,,0.00,Wunderground v.1.15,2013-01-28 00:40:00,
2013-01-27 18:45:00,72.2,66.4,29.99,SE,139,0.0,1.0,82,0.00,,,0.00,Wunderground v.1.15,2013-01-28 00:45:00,
2013-01-27 18:55:00,71.8,66.4,29.99,SSE,148,1.0,1.0,83,0.00,,,0.00,Wunderground v.1.15,2013-01-28 00:55:00,
2013-01-27 19:05:00,71.4,66.3,29.99,ESE,122,1.0,1.0,84,0.00,,,0.00,Wunderground v.1.15,2013-01-28 01:05:00,
2013-01-27 19:15:00,71.1,66.4,30.00,SE,132,1.0,2.0,85,0.00,,,0.00,Wunderground v.1.15,2013-01-28 01:15:00,
2013-01-27 19:25:00,71.0,66.6,30.00,East,89,1.0,2.0,86,0.00,,,0.00,Wunderground v.1.15,2013-01-28 01:25:00,
2013-01-27 19:35:00,70.9,66.5,30.00,SE,131,1.0,1.0,86,0.00,,,0.00,Wunderground v.1.15,2013-01-28 01:35:00,
2013-01-27 19:45:00,70.9,66.5,30.00,SE,129,1.0,1.0,86,0.00,,,0.00,Wunderground v.1.15,2013-01-28 01:45:00,
2013-01-27 19:55:00,70.7,66.6,30.01,SSE,156,1.0,2.0,87,0.00,,,0.00,Wunderground v.1.15,2013-01-28 01:55:00,
2013-01-27 20:00:00,70.7,66.6,30.01,SE,129,1.0,2.0,87,0.00,,,0.00,Wunderground v.1.15,2013-01-28 02:00:00,
2013-01-27 20:10:00,70.5,66.4,30.01,ESE,114,1.0,1.0,87,0.00,,,0.00,Wunderground v.1.15,2013-01-28 02:10:00,
2013-01-27 20:15:00,70.6,66.9,30.01,ESE,120,2.0,2.0,88,0.00,,,0.00,Wunderground v.1.15,2013-01-28 02:15:00,
2013-01-27 20:25:00,70.5,66.8,30.01,SE,145,1.0,2.0,88,0.00,,,0.00,Wunderground v.1.15,2013-01-28 02:25:00,
2013-01-27 20:34:00,70.5,66.8,30.01,NNW,332,1.0,1.0,88,0.00,,,0.00,Wunderground v.1.15,2013-01-28 02:34:00,
2013-01-27 20:40:00,70.5,66.8,30.01,SE,134,1.0,1.0,88,0.00,,,0.00,Wunderground v.1.15,2013-01-28 02:40:00,
2013-01-27 20:50:00,70.6,66.9,30.01,SSE,148,1.0,1.0,88,0.00,,,0.00,Wunderground v.1.15,2013-01-28 02:50:00,
2013-01-27 21:00:00,70.6,66.9,30.01,NE,44,1.0,1.0,88,0.00,,,0.00,Wunderground v.1.15,2013-01-28 03:00:00,
2013-01-27 21:10:00,70.5,67.1,30.01,SE,125,1.0,1.0,89,0.00,,,0.00,Wunderground v.1.15,2013-01-28 03:10:00,
2013-01-27 21:20:00,70.5,67.1,30.01,East,96,1.0,1.0,89,0.00,,,0.00,Wunderground v.1.15,2013-01-28 03:20:00,
2013-01-27 21:30:00,70.5,67.1,30.01,East,98,1.0,1.0,89,0.00,,,0.00,Wunderground v.1.15,2013-01-28 03:30:00,
2013-01-27 21:40:00,70.5,67.1,30.01,ESE,110,2.0,2.0,89,0.00,,,0.00,Wunderground v.1.15,2013-01-28 03:40:00,
2013-01-27 21:50:00,70.5,67.1,30.01,SE,132,2.0,2.0,89,0.00,,,0.00,Wunderground v.1.15,2013-01-28 03:50:00,
2013-01-27 22:00:00,70.5,67.1,30.01,East,100,1.0,1.0,89,0.00,,,0.00,Wunderground v.1.15,2013-01-28 04:00:00,
2013-01-27 22:10:00,70.4,67.0,30.01,ENE,72,1.0,2.0,89,0.00,,,0.00,Wunderground v.1.15,2013-01-28 04:10:00,
2013-01-27 22:20:00,70.4,67.3,30.01,SE,127,1.0,1.0,90,0.00,,,0.00,Wunderground v.1.15,2013-01-28 04:20:00,
2013-01-27 22:30:00,70.3,67.2,30.02,SE,145,1.0,1.0,90,0.00,,,0.00,Wunderground v.1.15,2013-01-28 04:30:00,
2013-01-27 22:40:00,70.3,67.2,30.02,ESE,118,1.0,1.0,90,0.00,,,0.00,Wunderground v.1.15,2013-01-28 04:40:00,
2013-01-27 22:50:00,70.3,67.2,30.02,East,92,1.0,3.0,90,0.00,,,0.00,Wunderground v.1.15,2013-01-28 04:50:00,
2013-01-27 23:05:00,70.2,67.1,30.02,ENE,68,2.0,2.0,90,0.00,,,0.00,Wunderground v.1.15,2013-01-28 05:05:00,
2013-01-27 23:10:00,70.1,67.3,30.02,SE,131,1.0,2.0,91,0.00,,,0.00,Wunderground v.1.15,2013-01-28 05:10:00,
2013-01-27 23:15:00,70.0,67.3,30.02,ESE,103,1.0,2.0,91,0.00,,,0.00,Wunderground v.1.15,2013-01-28 05:15:00,
2013-01-27 23:25:00,69.7,67.3,30.03,SSE,149,0.0,1.0,92,0.00,,,0.00,Wunderground v.1.15,2013-01-28 05:25:00,
2013-01-27 23:30:00,69.6,67.2,30.03,East,94,0.0,1.0,92,0.00,,,0.00,Wunderground v.1.15,2013-01-28 05:30:00,
2013-01-27 23:35:00,69.5,67.1,30.03,ENE,68,1.0,1.0,92,0.00,,,0.00,Wunderground v.1.15,2013-01-28 05:35:00,
2013-01-27 23:45:00,69.5,67.1,30.03,SSE,148,1.0,4.0,92,0.00,,,0.00,Wunderground v.1.15,2013-01-28 05:45:00,
2013-01-27 23:55:00,69.5,67.1,30.03,West,263,1.0,1.0,92,0.00,,,0.00,Wunderground v.1.15,2013-01-28 05:55:00,